Tracking 29933 objects as of 2-Dec-2024
HD Live streaming from Space Station
objects crossing your sky now

STARLINK-11224

Track STARLINK-11224 now!
10-day predictions
STARLINK-11224 is classified as:


NORAD ID: 60304
Int'l Code: 2024-133D
Perigee: 365.5 km
Apogee: 368.2 km
Inclination: 53.2 °
Period: 91.7 minutes
Semi major axis: 6737 km
RCS: Unknown
Launch date: July 28, 2024
Source: United States (US)
Launch site: AIR FORCE WESTERN TEST RANGE (AFWTR)
Your satellite tracking list
Your tracking list is empty




NASA's NSSDC Master Catalog

Two Line Element Set (TLE):
1 60304U 24133D   24335.22307913  .00004936  00000-0  45593-4 0  9992
2 60304  53.1568 275.9302 0002019  99.2885 260.8361 15.69706027 20869
Source of the keplerian elements: AFSPC